K5RG-3 Weather Reports


time (UTC)temp
C
wind
direction
speed
KPH
gust
KPH
rain 1hr
cm
rain 24hr
cm
rain mn
cm
humidity
%
barometer
mb
20260906230007 30 219 0.0 4.8 0.00 0.97 0.97 75 1009.2
20260906224505 31 165 0.0 3.2 0.00 0.97 0.97 74 1009.4
20260906223009 31 210 0.0 4.8 0.00 0.97 0.97 73 1009.8
20260906221501 31 239 0.0 8.0 0.00 0.97 0.97 75 1009.8
20260906220137 31 170 0.0 8.0 0.00 0.97 0.97 75 1010.0
20260906214600 31 158 0.0 3.2 0.00 0.97 0.97 75 1010.2
20260906213105 30 225 0.0 3.2 0.00 0.97 0.97 78 1010.4
20260906211610 30 212 1.6 4.8 0.00 0.97 0.97 79 1010.6
20260906210111 31 152 1.6 9.7 0.00 0.97 0.97 78 1010.7
20260906204558 31 176 3.2 9.7 0.00 0.97 0.97 76 1010.6
20260906203055 31 229 0.0 4.8 0.00 0.97 0.97 77 1010.8
20260906201553 30 173 0.0 4.8 0.00 0.97 0.97 78 1010.7
20260906200054 30 173 0.0 4.8 0.00 0.97 0.97 80 1010.9
20260906194610 30 176 1.6 9.7 0.00 0.97 0.97 81 1011.2
20260906193100 30 213 4.8 9.7 0.00 0.97 0.97 81 1011.6
20260906191548 29 267 3.2 9.7 0.00 0.97 0.97 83 1011.8
20260906190049 28 248 0.0 6.4 0.00 0.97 0.97 83 1011.5
20260906184604 27 226 0.0 4.8 0.00 0.97 0.97 86 1011.7
20260906183057 26 206 0.0 3.2 0.00 0.97 0.97 92 1011.8
20260906181545 25 198 0.0 0.0 0.00 0.97 0.97 93 1012.1
20260906180044 25 142 0.0 4.8 0.00 0.97 0.97 92 1012.2
20260906174543 25 153 0.0 3.2 0.10 0.97 0.97 93 1012.3
20260906173039 25 157 0.0 4.8 0.66 0.97 0.97 93 1012.4
20260906171538 25 200 0.0 1.6 0.71 0.97 0.97 93 1012.5
20260906170048 24 204 1.6 3.2 0.79 0.97 0.97 92 1012.8
20260906164543 25 192 3.2 11.3 0.76 0.86 0.86 91 1012.9
20260906163044 26 152 1.6 8.0 0.30 0.30 0.30 90 1012.8
20260906161532 26 192 0.0 3.2 0.23 0.23 0.23 88 1012.8
20260906160044 27 5 4.8 24.1 0.18 0.18 0.18 85 1012.6
20260906154527 28 358 11.3 25.7 0.10 0.10 0.10 82 1012.3
20260906153026 30 94 6.4 16.1 0.00 0.00 0.00 82 1012.1
20260906151526 30 71 8.0 16.1 0.00 0.00 0.00 82 1012.2
20260906150042 30 23 3.2 11.3 0.00 0.00 0.00 83 1012.1
20260906144532 30 29 1.6 4.8 0.00 0.00 0.00 82 1012.1
20260906143026 30 285 0.0 0.0 0.00 0.00 0.00 83 1012.2
20260906141532 30 242 0.0 0.0 0.00 0.00 0.00 84 1012.2
20260906140018 29 253 0.0 0.0 0.00 0.00 0.00 86 1012.1
20260906134509 28 253 0.0 0.0 0.00 0.00 0.00 89 1012.0
20260906133005 27 253 0.0 0.0 0.00 0.00 0.00 92 1012.0
20260906131504 26 253 0.0 0.0 0.00 0.00 0.00 94 1011.8
20260906130059 26 253 0.0 0.0 0.00 0.00 0.00 94 1011.5
20260906124557 26 253 0.0 0.0 0.00 0.00 0.00 94 1011.4
20260906123054 26 253 0.0 0.0 0.00 0.00 0.00 94 1011.2
20260906121552 26 253 0.0 0.0 0.00 0.00 0.00 93 1011.0
20260906120053 26 253 0.0 0.0 0.00 0.00 0.00 93 1010.9
20260906114551 26 253 0.0 0.0 0.00 0.00 0.00 93 1010.8
20260906113055 26 253 0.0 0.0 0.00 0.00 0.00 93 1010.7
20260906111549 26 253 0.0 0.0 0.00 0.00 0.00 93 1010.5
20260906110045 26 253 0.0 0.0 0.00 0.00 0.00 92 1010.4
20260906104548 26 253 0.0 0.0 0.00 0.00 0.00 92 1010.4
20260906103042 26 253 0.0 0.0 0.00 0.00 0.00 92 1010.4
20260906101541 26 253 0.0 0.0 0.00 0.00 0.00 92 1010.3
20260906100044 26 253 0.0 0.0 0.00 0.00 0.00 91 1010.2
20260906094605 26 253 0.0 0.0 0.00 0.00 0.00 91 1010.2
20260906093039 26 253 0.0 0.0 0.00 0.00 0.00 91 1010.1
20260906091543 26 253 0.0 0.0 0.00 0.00 0.00 90 1010.0
20260906090037 26 253 0.0 0.0 0.00 0.00 0.00 90 1010.1
20260906084539 26 253 0.0 0.0 0.00 0.00 0.00 91 1010.1
20260906083038 26 253 0.0 0.0 0.00 0.00 0.00 91 1009.9
20260906081545 26 253 0.0 0.0 0.00 0.00 0.00 90 1010.1
20260906080036 26 253 0.0 0.0 0.00 0.00 0.00 91 1010.2
20260906074534 26 253 0.0 0.0 0.00 0.00 0.00 90 1010.1
20260906073031 26 255 0.0 0.0 0.00 0.00 0.00 90 1010.2
20260906071532 27 238 0.0 4.8 0.00 0.00 0.00 90 1010.1
20260906070030 27 269 0.0 1.6 0.00 0.00 0.00 90 1010.3
20260906064530 27 250 0.0 3.2 0.00 0.00 0.00 90 1010.3
20260906063033 27 192 0.0 3.2 0.00 0.00 0.00 90 1010.3
20260906061535 27 246 0.0 1.6 0.00 0.00 0.00 89 1010.4
20260906060027 27 187 0.0 1.6 0.00 0.00 0.00 89 1010.3
20260906054525 27 136 0.0 0.0 0.00 0.00 0.00 89 1010.2
20260906053024 27 136 0.0 0.0 0.00 0.00 0.00 90 1010.3
20260906051523 27 136 0.0 0.0 0.00 0.00 0.00 89 1010.4
20260906050022 27 101 0.0 0.0 0.00 0.00 0.00 89 1010.4
20260906044527 27 101 0.0 0.0 0.00 0.00 0.00 89 1010.4
20260906043020 27 101 0.0 0.0 0.00 0.00 0.00 89 1010.5
20260906041520 27 101 0.0 0.0 0.00 0.00 0.00 88 1010.5
20260906040024 27 101 0.0 0.0 0.00 0.00 0.00 88 1010.6
20260906034621 28 101 0.0 0.0 0.00 0.00 0.00 88 1010.7
20260906033018 28 101 0.0 0.0 0.00 0.00 0.00 88 1010.7
20260906031534 28 113 0.0 0.0 0.00 0.00 0.00 87 1010.6
20260906030017 28 113 0.0 0.0 0.00 0.00 0.00 86 1010.7
20260906024516 28 113 0.0 0.0 0.00 0.00 0.00 85 1010.4
20260906023019 28 113 0.0 0.0 0.00 0.00 0.00 85 1010.3
20260906021516 28 113 0.0 0.0 0.00 0.00 0.00 85 1009.9
20260906020016 28 113 0.0 0.0 0.00 0.00 0.00 84 1009.8
20260906014515 28 113 0.0 0.0 0.00 0.00 0.00 84 1009.7
20260906013014 28 113 0.0 0.0 0.00 0.00 0.00 83 1009.5
20260906011516 29 113 0.0 0.0 0.00 0.00 0.00 83 1009.5
20260906010014 29 104 0.0 0.0 0.00 0.00 0.00 83 1009.4
20260906004513 29 111 0.0 1.6 0.00 0.00 0.00 82 1009.6
20260906003021 29 107 0.0 1.6 0.00 0.00 0.00 82 1009.6
20260906001512 30 100 0.0 4.8 0.00 0.00 0.00 81 1009.8
20260906000012 30 104 0.0 1.6 0.00 0.00 0.00 82 1010.1
20260905234511 30 119 0.0 3.2 0.00 0.00 0.00 81 1010.1
20260905233012 30 60 0.0 3.2 0.00 0.00 0.00 81 1009.9
20260905231511 30 123 0.0 4.8 0.00 0.00 0.00 81 1009.7